Regional Weather Roundup
Issued by NWS Newport/Morehead, NC

Home | Current Version | Previous Version | Text Only | Print | Product List | Glossary On
Versions: 1 2 3 4 5 6 7 8 9 10 11 12 13 14 15 16 17 18 19 20 21 22 23 24 25 26 27 28 29 30 31 32 33 34 35 36 37 38 39 40 41 42 43 44 45 46 47 48 49 50
000
ASUS42 KMHX 291725
RWRMHX
WEATHER ROUNDUP FOR EASTERN NORTH CAROLINA
NATIONAL WEATHER SERVICE NEWPORT/MOREHEAD CITY NC
100 PM EDT WED MAR 29 2017

NOTE: "FAIR" INDICATES FEW OR NO CLOUDS BELOW 12,000 FEET
WITH NO SIGNIFICANT WEATHER AND/OR OBSTRUCTIONS TO VISIBILITY

NCZ015>017-031-032-045>047-102-103-291800-
NORTH COAST

CITY           SKY/WX    TMP DP  RH WIND       PRES   REMARKS
EDENTON        CLOUDY    63  53  68 SE10      30.09S
ELIZABETH CITY PTSUNNY   60  48  64 NE14      30.09S
KITTY HAWK     NOT AVBL
MANTEO         PTSUNNY   56  47  71 NE17G24   30.10S

$$

NCZ045>047-081-094-103-104-291800-
CENTRAL COAST

CITY           SKY/WX    TMP DP  RH WIND       PRES   REMARKS
FRISCO         CLOUDY    58  50  75 NE10G23   30.07S

$$

NCZ095-097-098-100-101-291800-
SOUTHERN COAST

CITY           SKY/WX    TMP DP  RH WIND       PRES   REMARKS
BEAUFORT       MOSUNNY   65  56  72 N15       30.07F
CEDAR ISLAND   NOT AVBL
JACKSONVILLE   NOT AVBL
PINEY ISLAND   NOT AVBL
WILMINGTON     MOSUNNY   72  60  66 SE12      30.04F


$$

NCZ011>013-027>030-043-044-078>080-089-090>093-098-291800-
COASTAL PLAIN

CITY           SKY/WX    TMP DP  RH WIND       PRES   REMARKS
AHOSKIE          N/A     63  51  66 N7        30.09S
CLINTON        PTSUNNY   70  57  63 NE6       30.07F
ELIZABETHTOWN  PTSUNNY   75  57  54 N5        30.05F
GOLDSBORO      PTSUNNY   71  56  59 NE7       30.06F
GREENVILLE     PTSUNNY   66  54  63 N5        30.10F
HAVELOCK       PTSUNNY   66  54  65 NE12      30.09S
KENANSVILLE    CLOUDY    68  55  64 NE6       30.07F
KINSTON        PTSUNNY   68  54  60 E9        30.08F
NEW BERN       MOSUNNY   65  56  72 N10       30.09F
RICHLANDS      CLOUDY    66  57  72 N10       30.08F
ROCKY MOUNT    CLOUDY    67  54  63 N8        30.08F
WASHINGTON     MOSUNNY   65  53  65 N5        30.08F
WHITEVILLE     SUNNY     75  57  53 N5        30.03F

$$

AMZ130-135-150-152-154-156-158-170-250-252-270-ANZ085-086-088-633-658-670-291800-
MARINE OBSERVATIONS

STATION/POSITION TIME  TEMP    WIND        PRES    WAVE   SWELL
                       AIR SEA DIR/SP/G            HT/PER HT/PER
                 (UTC) (F)     (DEG/KT/KT) (MB)    (FT/S) (FT/S)
CHESAPEAKE LIGHT NOT AVBL
64 E VA BEACH    1650   49 48  360/ 17/ 19 1018.1    5/10   3/10
DUCK             1654   50 50   20/ 11/ 13 1018.6
2 E DUCK         1700      51                N/A     4/10   2/11
OREGON INLET     1648   52 58   20/ 13/ 18 1018.7
13E OREGON INLT  1648      49                N/A     6/11   3/11
HATTERAS CG      1654   53 61   20/ 20/ 22 1018.0
DIAMOND BUOY     1650   57 73   20/ 19/ 23 1017.4    7/10   3/10
CAPE LOOKOUT     1700   58      40/ 17/ 21 1018.0
BEAUFORT LAB     1654   61 62   30/ 11/ 17 1017.4
30 SE NEW RVR IN 1708   60      40/ 16/ 21 1018.0
30 SE NEW RVR IN 1643      64                N/A     5/10   2/11
27 SE WRIGHTSVLE 1608   64 73   70/ 19/ 27 1017.2
5 SE WRIGHTSVLE  1708   60 59   80/ 12/ 17 1017.6
225 S CAPE HAT   1650   72 72  250/ 10/ 12 1014.7    7/10   7/10
41 SE CHARLESTON 1650   70 71   10/  8/  8 1016.2    5/11   5/11

$$




USA.gov is the U.S. government's official web portal to all federal, state and local government web resources and services.